Date String (YYYY-MM-DD hh:mm:ss) UTC,Instrument flags,Ambient pressure (hPa),Sample flow (lpm),Bypass flow (lpm),Sample temperature (°C),Ambient temperature (°C),ASC tube jacket temperature (°C),LED temperature (°C),Box temperature (°C),Sample RH (%),Span deviation,Mass concentration (μg/m³),Mass concentration (μg/m³),Mass concentration (μg/m³)
DateTimeUTC,F1_M11,P_M11,Q1_M11,Q2_M11,T1_M11,T2_M11,T3_M11,T4_M11,T5_M11,U1_M11,ZSPAN_M11,X0_M11,X2_M11,X1_M11
2022-01-17 21:00:00,,0821.1,5.00,0.00,26.3,25.6,00.0,35.3,28.2,07.5,0000.0,0008.39,0003.28,0002.60
2022-01-17 21:01:00,,0821.1,4.99,0.00,26.4,25.6,00.0,35.3,28.2,07.7,0000.0,0008.44,0003.27,0002.60
2022-01-17 21:02:00,,0821.2,4.99,0.00,26.4,25.6,00.0,35.3,28.2,07.6,0000.0,0008.41,0003.25,0002.58
2022-01-17 21:03:00,,0821.3,5.02,0.00,26.4,25.6,00.0,35.3,28.2,08.2,0000.0,0007.67,0003.28,0002.61
2022-01-17 21:04:00,,0821.2,4.99,0.00,26.4,25.6,00.0,35.3,28.2,08.9,0000.0,0007.79,0003.43,0002.76
2022-01-17 21:05:00,,0821.1,5.02,0.00,26.4,25.6,00.0,35.3,28.2,08.5,0000.0,0007.92,0003.52,0002.92
2022-01-17 21:06:00,,0821.1,5.00,0.00,26.4,25.6,00.0,35.3,28.2,08.1,0000.0,0007.74,0003.60,0003.06
2022-01-17 21:07:00,,0821.1,5.00,0.00,26.4,25.6,00.0,35.3,28.2,07.9,0000.0,0007.54,0003.64,0003.14
2022-01-17 21:08:00,,0821.2,5.00,0.00,26.4,25.6,00.0,35.3,28.2,07.7,0000.0,0007.70,0003.66,0003.17
2022-01-17 21:09:00,,0821.1,5.00,0.00,26.4,25.6,00.0,35.3,28.2,07.7,0000.0,0007.79,0003.68,0003.21
2022-01-17 21:10:00,,0821.3,5.00,0.00,26.4,25.6,00.0,35.3,28.2,08.1,0000.0,0007.63,0003.67,0003.26
2022-01-17 21:11:00,,0821.3,4.98,0.00,26.4,25.6,00.0,35.3,28.2,09.7,0000.0,0007.87,0003.82,0003.40
2022-01-17 21:12:00,,0821.3,5.02,0.00,26.4,25.6,00.0,35.3,28.2,10.5,0000.0,0008.26,0004.04,0003.61
2022-01-17 21:13:00,,0821.3,5.00,0.00,26.3,25.5,00.0,35.3,28.2,10.7,0000.0,0008.87,0004.36,0003.84
2022-01-17 21:14:00,,0821.3,4.99,0.00,26.3,25.5,00.0,35.3,28.1,10.7,0000.0,0009.09,0004.57,0004.06
2022-01-17 21:15:00,,0821.3,5.01,0.00,26.3,25.5,00.0,35.3,28.1,10.4,0000.0,0009.98,0004.71,0004.21
2022-01-17 21:16:00,,0821.3,5.00,0.00,26.3,25.5,00.0,35.3,28.1,10.2,0000.0,0010.17,0004.86,0004.36
2022-01-17 21:17:00,,0821.3,4.99,0.00,26.3,25.5,00.0,35.3,28.1,10.0,0000.0,0010.22,0005.05,0004.51
2022-01-17 21:18:00,,0821.2,5.02,0.00,26.3,25.5,00.0,35.3,28.1,10.2,0000.0,0010.70,0005.26,0004.69
2022-01-17 21:19:00,,0821.2,5.02,0.00,26.3,25.5,00.0,35.3,28.1,10.2,0000.0,0011.26,0005.48,0004.89
2022-01-17 21:20:00,,0821.2,4.99,0.00,26.3,25.5,00.0,35.3,28.1,10.1,0000.0,0012.16,0005.73,0005.10
2022-01-17 21:21:00,,0821.2,5.00,0.00,26.3,25.5,00.0,35.3,28.2,10.0,0000.0,0014.58,0005.94,0005.28
2022-01-17 21:22:00,,0821.2,4.99,0.00,26.3,25.5,00.0,35.3,28.2,10.1,0000.0,0015.11,0006.09,0005.41
2022-01-17 21:23:00,,0821.2,5.00,0.00,26.3,25.5,00.0,35.3,28.1,10.3,0000.0,0014.94,0006.13,0005.47
2022-01-17 21:24:00,,0821.2,5.00,0.00,26.3,25.5,00.0,35.3,28.1,10.4,0000.0,0014.84,0006.13,0005.49
2022-01-17 21:25:00,,0821.2,5.01,0.00,26.3,25.5,00.0,35.3,28.1,09.8,0000.0,0014.92,0006.14,0005.50
2022-01-17 21:26:00,,0821.2,4.98,0.00,26.3,25.5,00.0,35.3,28.1,09.4,0000.0,0014.21,0006.13,0005.50
2022-01-17 21:27:00,,0821.1,5.01,0.00,26.3,25.5,00.0,35.3,28.1,09.0,0000.0,0014.26,0006.13,0005.49
2022-01-17 21:28:00,,0821.1,5.00,0.00,26.3,25.5,00.0,35.3,28.1,08.7,0000.0,0014.41,0006.10,0005.47
2022-01-17 21:29:00,,0821.3,4.99,0.00,26.3,25.5,00.0,35.3,28.1,08.5,0000.0,0014.75,0006.09,0005.45
2022-01-17 21:30:00,,0821.3,5.03,0.00,26.3,25.5,00.0,35.3,28.1,08.3,0000.0,0014.39,0006.06,0005.44
2022-01-17 21:31:00,,0821.3,4.99,0.00,26.3,25.5,00.0,35.3,28.2,08.6,0000.0,0013.62,0006.04,0005.42
2022-01-17 21:32:00,,0821.4,5.01,0.00,26.4,25.6,00.0,35.3,28.2,09.2,0000.0,0012.04,0006.02,0005.42
2022-01-17 21:33:00,,0821.4,5.00,0.00,26.4,25.6,00.0,35.3,28.2,10.0,0000.0,0011.88,0005.98,0005.38
2022-01-17 21:34:00,,0821.4,4.99,0.00,26.4,25.6,00.0,35.3,28.2,10.0,0000.0,0011.96,0005.95,0005.34
2022-01-17 21:35:00,,0821.4,5.00,0.00,26.4,25.6,00.0,35.3,28.2,09.6,0000.0,0011.83,0005.93,0005.31
2022-01-17 21:36:00,,0821.4,5.00,0.00,26.4,25.6,00.0,35.3,28.2,09.8,0000.0,0011.79,0005.93,0005.31
2022-01-17 21:37:00,,0821.4,5.00,0.00,26.4,25.6,00.0,35.3,28.2,09.8,0000.0,0011.74,0005.94,0005.33
2022-01-17 21:38:00,,0821.4,4.99,0.00,26.4,25.6,00.0,35.3,28.2,09.6,0000.0,0011.79,0005.95,0005.34
2022-01-17 21:39:00,,0821.4,5.01,0.00,26.4,25.6,00.0,35.3,28.2,10.0,0000.0,0011.77,0005.98,0005.38
2022-01-17 21:40:00,,0821.4,4.99,0.00,26.4,25.6,00.0,35.3,28.2,10.0,0000.0,0010.97,0006.08,0005.45
2022-01-17 21:41:00,,0821.4,5.01,0.00,26.4,25.6,00.0,35.3,28.2,09.8,0000.0,0010.99,0006.17,0005.49
2022-01-17 21:42:00,,0821.4,5.00,0.00,26.4,25.6,00.0,35.3,28.2,09.8,0000.0,0011.20,0006.28,0005.55
2022-01-17 21:43:00,,0821.4,4.99,0.00,26.4,25.6,00.0,35.3,28.2,10.0,0000.0,0011.25,0006.34,0005.59
2022-01-17 21:44:00,,0821.3,5.01,0.00,26.4,25.6,00.0,35.3,28.2,09.7,0000.0,0010.59,0006.39,0005.64
2022-01-17 21:45:00,,0821.3,4.99,0.00,26.4,25.6,00.0,35.3,28.2,09.4,0000.0,0010.49,0006.44,0005.70
2022-01-17 21:46:00,,0821.3,5.01,0.00,26.4,25.6,00.0,35.3,28.2,08.4,0000.0,0010.48,0006.50,0005.78
2022-01-17 21:47:00,,0821.3,5.00,0.00,26.4,25.6,00.0,35.3,28.2,08.0,0000.0,0010.52,0006.58,0005.87
2022-01-17 21:48:00,,0821.3,5.01,0.00,26.4,25.6,00.0,35.4,28.2,07.9,0000.0,0010.59,0006.64,0005.94
2022-01-17 21:49:00,,0821.2,4.98,0.00,26.4,25.6,00.0,35.4,28.2,07.6,0000.0,0010.66,0006.73,0006.03
2022-01-17 21:50:00,,0821.2,5.01,0.00,26.4,25.6,00.0,35.4,28.2,07.7,0000.0,0010.72,0006.79,0006.11
2022-01-17 21:51:00,,0821.3,4.99,0.00,26.4,25.6,00.0,35.4,28.2,08.0,0000.0,0010.83,0006.81,0006.17
2022-01-17 21:52:00,,0821.3,5.01,0.00,26.4,25.6,00.0,35.4,28.2,08.9,0000.0,0011.28,0006.80,0006.21
2022-01-17 21:53:00,,0821.3,4.99,0.00,26.4,25.6,00.0,35.4,28.2,09.0,0000.0,0012.27,0006.75,0006.20
2022-01-17 21:54:00,,0821.3,5.00,0.00,26.4,25.6,00.0,35.4,28.2,08.5,0000.0,0012.71,0006.75,0006.21
2022-01-17 21:55:00,,0821.3,4.99,0.00,26.4,25.6,00.0,35.4,28.2,08.2,0000.0,0012.75,0006.83,0006.27
2022-01-17 21:56:00,,0821.3,5.01,0.00,26.4,25.6,00.0,35.4,28.2,08.2,0000.0,0013.08,0006.92,0006.34
2022-01-17 21:57:00,,0821.2,4.99,0.00,26.4,25.6,00.0,35.4,28.2,07.7,0000.0,0013.23,0006.96,0006.37
2022-01-17 21:58:00,,0821.2,5.01,0.00,26.4,25.6,00.0,35.4,28.2,07.7,0000.0,0013.18,0006.95,0006.37
2022-01-17 21:59:00,,0821.2,4.98,0.00,26.4,25.6,00.0,35.4,28.2,07.8,0000.0,0013.06,0006.93,0006.37
